カタログに戻る

LEMUR-2-LAILA

運用中気象SSO
NORAD 66776·PAYLOAD·🇺🇸 United States

打ち上げ Nov 28, 2025 から Vandenberg Space Force Base

Loading…

次のパス (今後24時間)

TLE

最新Source: Space-Track

元期: Sep 13, 2026, 17:32 UTC

1 66776U 25276DQ  26256.73084863  .00003901  00000-0  17339-3 0  9993
2 66776  97.4103 329.3271 0001122 147.0988 213.0318 15.22101384 43910

AllMySatでLEMUR-2-LAILAをリアルタイム追跡

Download on the App Store